[[{"header":{"parameterUnit":"m.s-1","parameterCategory":2,"la1":30.2991,"la2":30.254,"lo1":-89.0895,"lo2":-89.0444,"dy":0.0017,"dx":0.0017,"nx":28,"ny":28,"refTime":"2024-05-01T09:00:00:Z","depth":"0","parameterNumber":2,"parameterNumberName":"U-component_of_CURRENTS"},"data":[0,0,0,0,0,0,0,0,0,0,0,0,0,0,0,0,0,0,0,0,0,0,0,0,0,0,0,0,0,0,0,0,0,0,0,0,0,0,0,0,0,0,0,0,0,0,0,0,0,0,0,0,0,0,0,0,0,0,-0.2352,-0.2352,0,-0.2361,-0.2361,-0.2361,-0.2363,-0.2362,-0.2362,-0.2362,-0.2315,-0.2314,-0.2313,0,0,0,0,0,0,0,0,0,0,0,0,0,-0.2237,-0.224,-0.2352,-0.2352,-0.2352,-0.2361,-0.2361,-0.2362,-0.2363,-0.2362,-0.2362,-0.2362,-0.2315,-0.2314,-0.2313,0,0,0,0,0,0,0,0,0,0,0,0,0,-0.2272,-0.2241,-0.2352,-0.2352,-0.2352,-0.2361,-0.2361,-0.2362,-0.2363,-0.2362,-0.2362,-0.2362,-0.2316,-0.2314,-0.2313,-0.2311,0,0,-0.2308,-0.2308,0,0,0,0,0,0,0,0,-0.227,-0.2277,-0.2352,-0.2352,-0.2352,-0.2359,-0.2303,-0.2341,-0.2363,-0.2361,-0.2362,-0.2361,-0.2324,-0.2321,-0.2327,-0.2309,-0.2307,-0.2308,-0.2307,-0.2306,-0.2306,0,0,0,0,0,0,0,-0.2268,-0.2276,-0.2357,-0.2352,-0.2352,-0.2318,-0.2324,-0.231,-0.2344,-0.2361,-0.236,-0.2359,-0.2323,-0.2329,-0.2326,-0.2306,-0.2308,-0.2307,-0.2306,-0.2305,-0.2316,-0.2317,0,0,0,0,0,0,-0.227,-0.2275,-0.2357,-0.2357,-0.2307,-0.232,-0.2327,-0.2358,-0.2346,-0.2343,-0.2359,-0.2359,-0.2332,-0.2328,-0.2324,-0.2291,-0.2306,-0.2305,-0.2304,-0.2315,-0.2316,-0.2318,0,0,0,0,0,0,-0.2268,-0.2278,-0.2357,-0.2312,-0.2319,-0.2323,-0.2358,-0.2359,-0.2363,-0.2345,-0.2342,-0.2362,-0.2331,-0.2326,-0.233,-0.229,-0.2304,-0.2303,-0.2313,-0.2315,-0.2317,-0.2244,0,0,0,0,0,0,-0.2265,-0.2279,-0.2293,-0.2314,-0.2322,-0.2352,-0.2358,-0.2359,-0.2361,-0.2361,-0.2346,-0.2341,-0.2331,-0.2332,-0.2328,-0.2288,-0.2302,-0.2312,-0.2314,-0.2316,-0.2245,-0.2243,-0.2241,0,0,0,0,0,-0.2262,-0.2285,-0.2295,-0.2304,-0.2347,-0.2351,-0.2352,-0.2353,-0.2362,-0.2357,-0.2368,-0.2342,-0.2344,-0.2332,-0.2327,-0.2286,-0.2311,-0.2314,-0.2316,-0.2246,-0.2243,-0.2242,0,0,0,0,0,0,-0.2232,-0.2288,-0.2299,-0.2336,-0.2338,-0.2351,-0.2349,-0.2355,-0.2362,-0.2365,-0.2356,-0.2353,-0.2338,-0.2345,-0.2332,-0.2306,-0.2323,-0.2325,-0.2271,-0.2269,-0.2267,-0.224,-0.2301,0,0,0,0,0,-0.2236,-0.2271,-0.2301,-0.232,-0.2332,-0.2342,-0.2343,-0.2346,-0.2356,-0.2359,-0.2348,-0.2351,-0.2347,-0.2335,-0.2335,-0.2317,-0.2293,-0.2295,-0.2293,-0.2291,-0.2273,-0.2218,-0.2207,-0.2326,-0.2326,-0.2326,0,0,-0.2221,-0.2258,-0.2272,-0.2314,-0.2324,-0.2322,-0.2343,-0.2346,-0.2327,-0.2351,-0.2328,-0.2342,-0.2348,-0.2329,-0.2322,-0.2323,-0.2249,-0.2295,-0.2292,-0.2274,-0.2219,-0.2206,-0.2195,-0.2328,-0.2328,-0.2328,0,0,-0.2197,-0.2253,-0.2266,-0.2279,-0.2297,-0.2304,-0.2305,-0.232,-0.2314,-0.2307,-0.2319,-0.2316,-0.2312,-0.2296,-0.2293,-0.2288,-0.2247,-0.2295,-0.2244,-0.2191,-0.2178,-0.2168,-0.2122,-0.2108,-0.2286,-0.2286,-0.2286,0,-0.2166,-0.2197,-0.2259,-0.227,-0.226,-0.2295,-0.2276,-0.2282,-0.2285,-0.2271,-0.2292,-0.2285,-0.2287,-0.225,-0.2254,-0.2271,-0.2246,-0.2239,-0.2181,-0.217,-0.2159,-0.2116,-0.21,-0.2282,-0.2283,-0.2283,-0.2283,0,-0.2155,-0.2164,-0.2171,-0.2199,-0.2205,-0.2192,-0.2213,-0.2206,-0.221,-0.2209,-0.2186,-0.2205,-0.2194,-0.2199,-0.2221,-0.2156,-0.2163,-0.2183,-0.2167,-0.2141,-0.2099,-0.2084,-0.2278,-0.2279,-0.228,-0.2281,0,0,-0.2081,-0.2147,-0.2138,-0.2125,-0.216,-0.2153,-0.2139,-0.2118,-0.2094,-0.2106,-0.2061,-0.2072,-0.209,-0.2091,-0.2112,-0.2073,-0.1985,-0.2095,-0.2094,-0.2017,-0.1864,-0.1842,-0.1824,-0.1986,-0.1983,-0.1981,-0.1861,0,-0.202,-0.2019,-0.2068,-0.202,-0.2006,-0.2042,-0.2024,-0.2022,-0.2022,-0.1996,-0.2012,-0.1996,-0.2047,-0.2041,-0.2008,-0.2005,-0.1944,-0.2016,-0.193,-0.1927,-0.1882,-0.1805,-0.1767,-0.1654,-0.1847,-0.1844,-0.1842,0,-0.1955,-0.1965,-0.193,-0.1921,-0.192,-0.1909,-0.1877,-0.1866,-0.1868,-0.1872,-0.1868,-0.1895,-0.1865,-0.1909,-0.1844,-0.1889,-0.1858,-0.185,-0.1845,-0.1834,-0.1877,-0.1716,-0.162,-0.1631,-0.182,-0.1821,-0.1823,0,-0.183,-0.1838,-0.1801,-0.1804,-0.1827,-0.1808,-0.1812,-0.1822,-0.181,-0.1794,-0.1793,-0.1771,-0.1769,-0.1728,-0.1746,-0.1776,-0.1667,-0.1704,-0.1644,-0.1643,-0.1597,-0.1597,-0.1469,-0.1605,-0.1605,-0.1606,-0.1606,0,-0.1714,-0.1669,-0.175,-0.172,-0.1672,-0.1731,-0.1678,-0.1683,-0.1705,-0.1691,-0.1727,-0.1711,-0.1723,-0.1693,-0.1685,-0.1622,-0.1611,-0.16,-0.1593,-0.1576,-0.1575,-0.1576,-0.1616,-0.1601,-0.1602,-0.1603,-0.1604,0,-0.1546,-0.1605,-0.1555,-0.1594,-0.1607,-0.1571,-0.1609,-0.1591,-0.1629,-0.161,-0.1609,-0.1643,-0.1608,-0.1611,-0.1549,-0.1545,-0.1464,-0.1459,-0.1447,-0.144,-0.1398,-0.1436,-0.13,-0.1261,-0.1348,-0.1347,-0.1345,0,-0.145,-0.1419,-0.145,-0.1447,-0.1459,-0.1452,-0.1461,-0.1523,-0.153,-0.1571,-0.156,-0.1545,-0.1526,-0.1444,-0.1411,-0.1344,-0.1381,-0.1278,-0.132,-0.1349,-0.1388,-0.1421,-0.1401,-0.1234,-0.1232,-0.123,-0.1229,0,-0.1258,-0.1288,-0.1277,-0.1283,-0.1294,-0.1299,-0.1332,-0.1343,-0.1428,-0.1437,-0.1453,-0.1443,-0.1393,-0.1328,-0.1266,-0.1226,-0.1267,-0.124,-0.1256,-0.1258,-0.1296,-0.1272,-0.1379,-0.1214,-0.1215,-0.1216,-0.1217,-0.1218,-0.1119,-0.1085,-0.1115,-0.1107,-0.1133,-0.1164,-0.1151,-0.1222,-0.1241,-0.1276,-0.1325,-0.1303,-0.1296,-0.1202,-0.1162,-0.1103,-0.1129,-0.1093,-0.1127,-0.1149,-0.1133,-0.121,-0.1057,-0.1057,-0.1058,-0.1058,-0.1058,0,-0.0954,-0.0962,-0.0946,-0.0964,-0.0963,-0.1022,-0.1076,-0.1081,-0.1099,-0.1141,-0.1149,-0.1163,-0.1118,-0.1113,-0.1074,-0.1028,-0.1003,-0.1008,-0.1046,-0.1021,-0.106,-0.1079,-0.094,-0.094,-0.094,-0.094,-0.094,-0.094,-0.0874,-0.083,-0.0845,-0.0811,-0.0829,-0.082,-0.0843,-0.0873,-0.0905,-0.0916,-0.0933,-0.0971,-0.1021,-0.1149,-0.1107,-0.1046,-0.1031,-0.099,-0.0997,-0.1058,-0.107,-0.1081,-0.1105,-0.0974,-0.0974,-0.0921,-0.0921,-0.0921]},{"header":{"parameterUnit":"m.s-1","parameterCategory":2,"la1":30.2991,"la2":30.254,"lo1":-89.0895,"lo2":-89.0444,"dy":0.0017,"dx":0.0017,"nx":28,"ny":28,"refTime":"2024-05-01T09:00:00:Z","depth":"0","parameterNumber":3,"parameterNumberName":"V-component_of_CURRENTS"},"data":[0,0,0,0,0,0,0,0,0,0,0,0,0,0,0,0,0,0,0,0,0,0,0,0,0,0,0,0,0,0,0,0,0,0,0,0,0,0,0,0,0,0,0,0,0,0,0,0,0,0,0,0,0,0,0,0,0,0,0.0057,0.0058,0,0.0227,0.023,0.0232,0.0381,0.0382,0.0383,0.0385,0.0555,0.0558,0.0561,0,0,0,0,0,0,0,0,0,0,0,0,0,-0.0025,-0.0025,0.0056,0.0058,0.006,0.0227,0.023,0.0233,0.0381,0.0382,0.0384,0.0385,0.0554,0.0558,0.0562,0,0,0,0,0,0,0,0,0,0,0,0,0,0.0069,-0.0025,0.0056,0.0149,0.0159,0.0226,0.023,0.0234,0.0381,0.0382,0.0384,0.0386,0.0552,0.0557,0.0562,0.056,0,0,0.0578,0.058,0,0,0,0,0,0,0,0,0.0064,0.0073,0.0134,0.0143,0.0154,0.028,0.0263,0.0341,0.038,0.0303,0.0385,0.0387,0.0457,0.047,0.0507,0.0568,0.0575,0.0579,0.0582,0.0584,0.0585,0,0,0,0,0,0,0,0.0057,0.0067,0.013,0.0135,0.0148,0.0222,0.0237,0.028,0.0373,0.031,0.0319,0.0328,0.0464,0.0502,0.0512,0.0577,0.0578,0.0583,0.0586,0.0588,0.0711,0.0711,0,0,0,0,0,0,0.0016,0.006,0.0125,0.0135,0.0106,0.0221,0.0238,0.0242,0.0373,0.0393,0.0327,0.0335,0.0492,0.0506,0.0519,0.055,0.0584,0.0589,0.0592,0.071,0.0711,0.0711,0,0,0,0,0,0,0.0013,0.002,0.0118,0.0097,0.0114,0.0219,0.0224,0.0245,0.0283,0.0385,0.0406,0.0343,0.0494,0.0511,0.0571,0.0557,0.0591,0.0596,0.071,0.0711,0.0711,0.0595,0,0,0,0,0,0,0.001,0.0018,0.0007,0.0094,0.0114,0.0147,0.0222,0.0246,0.0283,0.0295,0.0405,0.0423,0.0497,0.0562,0.0576,0.0564,0.06,0.071,0.071,0.0711,0.0599,0.0592,0.0585,0,0,0,0,0,0.0006,-0.0004,0.0006,0.0013,0.0095,0.0146,0.0163,0.0249,0.0281,0.0291,0.0378,0.042,0.0574,0.0566,0.0582,0.0572,0.071,0.071,0.0711,0.0602,0.0593,0.0585,0,0,0,0,0,0,-0.0043,0.0012,0.0025,0.003,0.0071,0.0168,0.0189,0.0231,0.0307,0.0321,0.0419,0.0443,0.049,0.0546,0.0535,0.0611,0.0649,0.0652,0.0561,0.0553,0.0546,0.0537,0.0604,0,0,0,0,0,-0.0068,-0.0062,-0.0006,-0.0008,0.0012,0.0089,0.0119,0.0167,0.0242,0.0278,0.035,0.0433,0.0502,0.0538,0.0605,0.0636,0.0675,0.0643,0.0636,0.063,0.0635,0.0678,0.0674,0.0712,0.0712,0.0712,0,0,-0.0093,-0.0062,-0.0061,-0.0019,0.0027,0.0051,0.0114,0.0149,0.0175,0.0279,0.0337,0.0404,0.0506,0.0557,0.0582,0.0602,0.0636,0.063,0.0624,0.0633,0.0678,0.0674,0.067,0.0712,0.0712,0.0712,0,0,-0.0133,-0.0111,-0.0117,-0.0083,-0.0035,0.0014,0.0011,0.0089,0.0134,0.018,0.0271,0.033,0.0425,0.0504,0.0555,0.0545,0.0595,0.056,0.052,0.056,0.0556,0.0554,0.0572,0.0572,0.0559,0.0559,0.0559,0,-0.0169,-0.0156,-0.0113,-0.01,-0.0068,-0.0013,-0.0001,0.0043,0.0128,0.0164,0.0183,0.034,0.0405,0.0495,0.0496,0.0528,0.0552,0.0536,0.0547,0.0546,0.0546,0.0565,0.0567,0.0553,0.0554,0.0555,0.0555,0,-0.0197,-0.0186,-0.0182,-0.0148,-0.0118,-0.0095,-0.0038,-0.0012,0.0032,0.0088,0.0165,0.026,0.0363,0.0379,0.0435,0.0474,0.049,0.0525,0.0558,0.0535,0.0557,0.0561,0.0545,0.0547,0.0549,0.055,0,0,-0.0273,-0.0214,-0.0213,-0.0189,-0.0131,-0.0103,-0.008,-0.0021,0.0012,0.0069,0.0125,0.0223,0.0274,0.0336,0.0407,0.0434,0.0432,0.0467,0.0472,0.0466,0.05,0.0517,0.0524,0.0462,0.0463,0.0463,0.0505,0,-0.0304,-0.0281,-0.0243,-0.022,-0.0194,-0.0134,-0.0107,-0.0054,-0.0001,0.0056,0.0141,0.0217,0.026,0.0304,0.0338,0.0422,0.0442,0.0416,0.0542,0.0545,0.0549,0.053,0.0559,0.0601,0.0509,0.051,0.0511,0,-0.0341,-0.0308,-0.0287,-0.022,-0.0205,-0.019,-0.0117,-0.0087,-0.0007,0.0036,0.0111,0.0182,0.0257,0.028,0.0392,0.0372,0.0424,0.0469,0.0473,0.0538,0.0571,0.0619,0.0612,0.0732,0.0517,0.0517,0.0516,0,-0.0386,-0.0338,-0.0313,-0.0289,-0.0217,-0.0198,-0.0164,-0.0093,-0.0054,0.0022,0.0056,0.0159,0.0219,0.0291,0.0391,0.0389,0.0494,0.0512,0.0575,0.0576,0.0654,0.0662,0.0769,0.0574,0.0574,0.0574,0.0574,0,-0.0418,-0.0398,-0.033,-0.0312,-0.0278,-0.0224,-0.0186,-0.0143,-0.0078,-0.0026,0.0047,0.011,0.0221,0.0304,0.0377,0.049,0.0492,0.0566,0.0593,0.0613,0.0616,0.0769,0.0811,0.0575,0.0575,0.0575,0.0574,0,-0.0472,-0.043,-0.0392,-0.0319,-0.0299,-0.0276,-0.0209,-0.0179,-0.0122,-0.0059,-0.0039,0.0075,0.0182,0.0287,0.0414,0.0484,0.0649,0.0618,0.062,0.0646,0.0806,0.084,0.0962,0.1029,0.0685,0.0686,0.0686,0,-0.0491,-0.0478,-0.0405,-0.0383,-0.0352,-0.0308,-0.0278,-0.0211,-0.0173,-0.0067,-0.0037,0.0073,0.0172,0.0351,0.0488,0.0613,0.0697,0.071,0.0717,0.0818,0.0877,0.0894,0.0943,0.0765,0.0766,0.0767,0.0768,0,-0.0514,-0.0494,-0.0459,-0.0418,-0.0385,-0.0339,-0.0291,-0.0268,-0.0182,-0.0134,-0.0037,0.0041,0.0235,0.0411,0.0575,0.0652,0.0797,0.0734,0.0856,0.0961,0.0972,0.1048,0.0715,0.0777,0.0776,0.0776,0.0775,0.0775,-0.0527,-0.0514,-0.0473,-0.0437,-0.0405,-0.0366,-0.0333,-0.0284,-0.0231,-0.0145,-0.0056,0.0061,0.0351,0.0593,0.0702,0.093,0.0887,0.0992,0.1025,0.1033,0.1104,0.0772,0.0856,0.0856,0.0856,0.0855,0.0855,0,-0.0525,-0.0511,-0.0487,-0.0441,-0.0424,-0.0393,-0.0333,-0.0296,-0.0243,-0.0172,-0.0084,0.021,0.0492,0.0753,0.1085,0.1221,0.1256,0.1279,0.133,0.1368,0.1101,0.1114,0.1238,0.1237,0.1237,0.1237,0.1237,0.1237,-0.0517,-0.05,-0.0489,-0.046,-0.0438,-0.0394,-0.036,-0.0304,-0.0245,-0.011,0.0022,0.0143,0.0542,0.1138,0.148,0.1508,0.1645,0.161,0.168,0.152,0.1496,0.1474,0.1498,0.1701,0.1701,0.1951,0.1953,0.1955]}],[{"header":{"parameterUnit":"m.s-1","parameterCategory":2,"la1":30.2991,"la2":30.254,"lo1":-89.0895,"lo2":-89.0444,"dy":0.0017,"dx":0.0017,"nx":28,"ny":28,"refTime":"2024-05-01T09:00:00:Z","depth":"2","parameterNumber":2,"parameterNumberName":"U-component_of_CURRENTS"},"data":[0,0,0,0,0,0,0,0,0,0,0,0,0,0,0,0,0,0,0,0,0,0,0,0,0,0,0,0,0,0,0,0,0,0,0,0,0,0,0,0,0,0,0,0,0,0,0,0,0,0,0,0,0,0,0,0,0,0,-0.2047,-0.2047,0,-0.2035,-0.2035,-0.2035,-0.2076,-0.2076,-0.2077,-0.2078,-0.2042,-0.204,-0.2039,0,0,0,0,0,0,0,0,0,0,0,0,0,-0.1915,-0.1919,-0.2047,-0.2046,-0.2046,-0.2035,-0.2035,-0.2035,-0.2076,-0.2076,-0.2077,-0.2078,-0.2042,-0.2041,-0.2039,0,0,0,0,0,0,0,0,0,0,0,0,0,-0.195,-0.192,-0.2047,-0.2061,-0.2061,-0.2035,-0.2035,-0.2035,-0.2075,-0.2076,-0.2078,-0.2079,-0.2043,-0.2041,-0.2038,-0.2001,0,0,-0.2031,-0.203,0,0,0,0,0,0,0,0,-0.1948,-0.1956,-0.2059,-0.206,-0.206,-0.2053,-0.1975,-0.2021,-0.2075,-0.2076,-0.2078,-0.2079,-0.2039,-0.2037,-0.204,-0.1999,-0.1997,-0.203,-0.2029,-0.2028,-0.2027,0,0,0,0,0,0,0,-0.1946,-0.1955,-0.2048,-0.2058,-0.2059,-0.2001,-0.201,-0.1983,-0.2055,-0.2076,-0.2077,-0.2067,-0.204,-0.2043,-0.2039,-0.1997,-0.2031,-0.2028,-0.2027,-0.2026,-0.1967,-0.1967,0,0,0,0,0,0,-0.1947,-0.1954,-0.2048,-0.2047,-0.2,-0.2003,-0.2013,-0.2059,-0.2056,-0.2055,-0.2066,-0.2069,-0.2046,-0.2042,-0.2038,-0.2009,-0.2028,-0.2026,-0.2024,-0.1967,-0.1967,-0.1967,0,0,0,0,0,0,-0.1945,-0.1957,-0.2048,-0.1992,-0.1999,-0.2006,-0.2055,-0.2058,-0.2059,-0.2048,-0.2048,-0.2064,-0.2047,-0.2042,-0.203,-0.2008,-0.2024,-0.2022,-0.1967,-0.1967,-0.1967,-0.1941,0,0,0,0,0,0,-0.1942,-0.1958,-0.1967,-0.1994,-0.2002,-0.2023,-0.2054,-0.2057,-0.2048,-0.2052,-0.2046,-0.2044,-0.2047,-0.2034,-0.2028,-0.2005,-0.202,-0.1967,-0.1967,-0.1967,-0.1942,-0.194,-0.1938,0,0,0,0,0,-0.1938,-0.194,-0.1969,-0.1977,-0.2025,-0.2022,-0.202,-0.2029,-0.2047,-0.2038,-0.2053,-0.2044,-0.2028,-0.2032,-0.2024,-0.2,-0.1967,-0.1967,-0.1967,-0.1943,-0.194,-0.1938,0,0,0,0,0,0,-0.1887,-0.1945,-0.1977,-0.2,-0.2008,-0.2027,-0.2014,-0.2022,-0.2026,-0.2039,-0.2039,-0.2038,-0.2026,-0.2015,-0.2019,-0.1986,-0.1997,-0.1995,-0.1981,-0.1978,-0.1976,-0.1975,-0.2018,0,0,0,0,0,-0.1882,-0.1911,-0.1946,-0.1966,-0.1977,-0.1998,-0.199,-0.2004,-0.2016,-0.202,-0.202,-0.2022,-0.2017,-0.2001,-0.2002,-0.1967,-0.1945,-0.1949,-0.1948,-0.1946,-0.1942,-0.1897,-0.189,-0.1966,-0.1966,-0.1966,0,0,-0.1868,-0.1902,-0.1917,-0.1955,-0.1978,-0.1984,-0.1999,-0.2001,-0.1998,-0.2011,-0.2013,-0.2018,-0.2012,-0.1996,-0.1986,-0.1981,-0.1912,-0.1946,-0.1944,-0.1941,-0.1896,-0.1888,-0.1882,-0.1966,-0.1966,-0.1966,0,0,-0.1848,-0.1896,-0.1911,-0.1919,-0.194,-0.1957,-0.1956,-0.198,-0.1985,-0.1985,-0.2001,-0.1993,-0.1984,-0.1971,-0.1964,-0.1944,-0.1916,-0.1942,-0.1911,-0.1867,-0.186,-0.1854,-0.1808,-0.1798,-0.1926,-0.1926,-0.1926,0,-0.1822,-0.1861,-0.1903,-0.1914,-0.1907,-0.1949,-0.1943,-0.1956,-0.1967,-0.1956,-0.1987,-0.1977,-0.1973,-0.1932,-0.1939,-0.1936,-0.1909,-0.1917,-0.1863,-0.1856,-0.185,-0.1804,-0.1793,-0.1925,-0.1925,-0.1925,-0.1925,0,-0.1817,-0.1835,-0.1842,-0.1889,-0.1887,-0.1884,-0.1913,-0.1912,-0.1933,-0.1941,-0.1925,-0.1936,-0.1919,-0.1918,-0.1926,-0.1871,-0.1867,-0.1876,-0.1864,-0.184,-0.1794,-0.1783,-0.1923,-0.1923,-0.1924,-0.1924,0,0,-0.1771,-0.1828,-0.1825,-0.1826,-0.1865,-0.1857,-0.1867,-0.186,-0.1847,-0.1875,-0.1842,-0.1855,-0.1863,-0.1855,-0.1852,-0.182,-0.1758,-0.1828,-0.1826,-0.1774,-0.1653,-0.1628,-0.1613,-0.1754,-0.1752,-0.175,-0.1635,0,-0.1744,-0.1749,-0.1785,-0.1768,-0.1764,-0.1796,-0.1794,-0.1796,-0.1811,-0.1794,-0.1803,-0.1792,-0.1836,-0.1822,-0.1799,-0.1776,-0.1729,-0.1788,-0.1692,-0.1689,-0.1662,-0.16,-0.1515,-0.1403,-0.1624,-0.1622,-0.1621,0,-0.17,-0.1707,-0.1694,-0.1694,-0.1697,-0.17,-0.1681,-0.1682,-0.1685,-0.1695,-0.1695,-0.1714,-0.1682,-0.1726,-0.1666,-0.1702,-0.1672,-0.1658,-0.1653,-0.1631,-0.1642,-0.1465,-0.1374,-0.1602,-0.1604,-0.1605,-0.1606,0,-0.1598,-0.1621,-0.1602,-0.1603,-0.163,-0.1619,-0.1633,-0.1645,-0.1636,-0.1626,-0.1626,-0.1609,-0.1601,-0.1573,-0.1581,-0.1606,-0.1514,-0.1535,-0.1477,-0.1474,-0.1384,-0.1377,-0.1465,-0.1465,-0.1465,-0.1465,-0.1466,0,-0.1514,-0.1485,-0.1558,-0.1531,-0.1498,-0.155,-0.1515,-0.1525,-0.1545,-0.153,-0.1568,-0.1552,-0.1566,-0.1538,-0.1532,-0.1473,-0.1467,-0.1451,-0.1434,-0.1373,-0.1367,-0.1537,-0.1547,-0.1461,-0.1462,-0.1463,-0.1464,0,-0.1372,-0.143,-0.1393,-0.143,-0.1443,-0.1411,-0.1451,-0.1436,-0.1475,-0.1455,-0.1453,-0.1486,-0.1455,-0.1461,-0.1406,-0.1402,-0.135,-0.1325,-0.1259,-0.1237,-0.1346,-0.1357,-0.1222,-0.1219,-0.1218,-0.1216,-0.1215,0,-0.1291,-0.1269,-0.1297,-0.1294,-0.1309,-0.1304,-0.1311,-0.1372,-0.1378,-0.1416,-0.14,-0.1388,-0.1368,-0.1295,-0.1266,-0.1206,-0.1275,-0.1102,-0.1135,-0.132,-0.1317,-0.133,-0.1342,-0.0996,-0.0993,-0.099,-0.0988,0,-0.1125,-0.1153,-0.1143,-0.1146,-0.1156,-0.1156,-0.1188,-0.1192,-0.127,-0.1277,-0.1288,-0.1278,-0.1231,-0.1147,-0.1094,-0.1055,-0.111,-0.1051,-0.1221,-0.1091,-0.1102,-0.1102,-0.1122,-0.0967,-0.0969,-0.0971,-0.0972,-0.0973,-0.1003,-0.0972,-0.0998,-0.0988,-0.1008,-0.1025,-0.1009,-0.1069,-0.1078,-0.1099,-0.115,-0.1106,-0.1103,-0.0967,-0.0921,-0.0883,-0.0954,-0.0927,-0.0935,-0.0946,-0.096,-0.097,-0.0812,-0.0813,-0.0814,-0.0815,-0.0816,0,-0.0854,-0.0861,-0.0847,-0.0856,-0.0849,-0.0901,-0.0936,-0.0928,-0.0932,-0.0952,-0.0955,-0.085,-0.0808,-0.0802,-0.0714,-0.0706,-0.0704,-0.0681,-0.0692,-0.0712,-0.0731,-0.0737,-0.0528,-0.0527,-0.0526,-0.0525,0,0,-0.0781,-0.0739,-0.075,-0.071,-0.0725,-0.0702,-0.0712,-0.0719,-0.0729,-0.0688,-0.0663,-0.0732,-0.0761,-0.0639,-0.0623,-0.0565,-0.0628,-0.053,-0.0759,-0.0791,-0.0808,-0.0867,-0.0898,0,0,0,0,0]},{"header":{"parameterUnit":"m.s-1","parameterCategory":2,"la1":30.2991,"la2":30.254,"lo1":-89.0895,"lo2":-89.0444,"dy":0.0017,"dx":0.0017,"nx":28,"ny":28,"refTime":"2024-05-01T09:00:00:Z","depth":"2","parameterNumber":3,"parameterNumberName":"V-component_of_CURRENTS"},"data":[0,0,0,0,0,0,0,0,0,0,0,0,0,0,0,0,0,0,0,0,0,0,0,0,0,0,0,0,0,0,0,0,0,0,0,0,0,0,0,0,0,0,0,0,0,0,0,0,0,0,0,0,0,0,0,0,0,0,-0.0141,-0.014,0,-0.0004,-0.0002,0.0,0.0149,0.0151,0.0152,0.0153,0.0298,0.0301,0.0303,0,0,0,0,0,0,0,0,0,0,0,0,0,-0.0195,-0.0195,-0.0141,-0.014,-0.0139,-0.0004,-0.0002,0.0001,0.0149,0.0151,0.0152,0.0154,0.0298,0.0301,0.0304,0,0,0,0,0,0,0,0,0,0,0,0,0,-0.0119,-0.0194,-0.0141,-0.0055,-0.0046,-0.0005,-0.0002,0.0002,0.0149,0.0151,0.0153,0.0155,0.0297,0.03,0.0304,0.0286,0,0,0.0316,0.0317,0,0,0,0,0,0,0,0,-0.0123,-0.0116,-0.0068,-0.0061,-0.0051,0.0051,0.0032,0.0094,0.0148,0.0083,0.0153,0.0156,0.0209,0.0221,0.0253,0.0292,0.0299,0.0316,0.0318,0.032,0.0321,0,0,0,0,0,0,0,-0.0129,-0.0121,-0.0078,-0.0068,-0.0057,0.0004,0.0017,0.0046,0.0139,0.0089,0.0098,0.01,0.0216,0.0249,0.0257,0.0301,0.0316,0.0319,0.0322,0.0323,0.0404,0.0404,0,0,0,0,0,0,-0.0169,-0.0127,-0.0083,-0.0075,-0.0092,0.0002,0.0017,0.0022,0.0139,0.0156,0.0098,0.0106,0.0241,0.0253,0.0263,0.0298,0.032,0.0324,0.0326,0.0404,0.0404,0.0403,0,0,0,0,0,0,-0.017,-0.0166,-0.0089,-0.0104,-0.0091,-0.0001,0.0005,0.0024,0.0057,0.0144,0.0164,0.011,0.0244,0.0257,0.0303,0.0303,0.0325,0.0329,0.0404,0.0404,0.0404,0.0336,0,0,0,0,0,0,-0.0172,-0.0167,-0.0182,-0.0107,-0.0092,-0.0069,0.0002,0.0025,0.0051,0.0064,0.016,0.0177,0.0246,0.0297,0.0307,0.0309,0.0332,0.0404,0.0404,0.0404,0.0338,0.0333,0.0329,0,0,0,0,0,-0.0175,-0.0189,-0.0184,-0.0179,-0.0113,-0.0071,-0.0057,0.0021,0.0049,0.006,0.0134,0.0174,0.0302,0.0299,0.0311,0.0314,0.0404,0.0404,0.0404,0.034,0.0334,0.0329,0,0,0,0,0,0,-0.0211,-0.0175,-0.0166,-0.0168,-0.0135,-0.0049,-0.0032,0.0001,0.0067,0.0082,0.0167,0.0189,0.0234,0.0272,0.0266,0.0337,0.036,0.0362,0.0308,0.0303,0.0299,0.0298,0.0335,0,0,0,0,0,-0.0239,-0.0239,-0.0198,-0.0201,-0.0188,-0.0123,-0.01,-0.0056,0.0008,0.0041,0.0109,0.0179,0.0239,0.0268,0.0327,0.0348,0.038,0.0359,0.0355,0.035,0.0358,0.0401,0.04,0.0402,0.0402,0.0402,0,0,-0.0258,-0.0237,-0.0239,-0.0211,-0.017,-0.0148,-0.0099,-0.007,-0.0041,0.004,0.0105,0.0161,0.0241,0.0292,0.0313,0.0324,0.0362,0.035,0.0346,0.0357,0.04,0.04,0.04,0.0402,0.0402,0.0402,0,0,-0.0283,-0.0275,-0.0281,-0.0256,-0.0221,-0.0178,-0.0183,-0.0114,-0.0069,-0.0026,0.0053,0.0105,0.0187,0.0257,0.0299,0.0292,0.0337,0.0304,0.0281,0.0321,0.0321,0.0322,0.0337,0.034,0.03,0.03,0.03,0,-0.0311,-0.0303,-0.0277,-0.0267,-0.0242,-0.0199,-0.0186,-0.0144,-0.0068,-0.0036,-0.0013,0.0125,0.0178,0.0255,0.0265,0.0282,0.0305,0.0294,0.0314,0.0316,0.0318,0.0334,0.0338,0.0297,0.0297,0.0298,0.0298,0,-0.033,-0.0323,-0.0317,-0.0288,-0.0266,-0.0245,-0.0196,-0.0169,-0.0126,-0.0074,-0.0001,0.008,0.0168,0.0183,0.0226,0.0269,0.0278,0.0302,0.0325,0.0313,0.0331,0.0336,0.0292,0.0293,0.0294,0.0295,0,0,-0.039,-0.0341,-0.034,-0.0319,-0.0271,-0.0248,-0.0217,-0.0164,-0.0133,-0.007,-0.0018,0.0076,0.0117,0.0167,0.022,0.025,0.0267,0.0275,0.0278,0.0283,0.0338,0.0349,0.0356,0.0293,0.0295,0.0295,0.0335,0,-0.0408,-0.0385,-0.0357,-0.0329,-0.0306,-0.0259,-0.0227,-0.018,-0.0127,-0.0073,0.0002,0.0071,0.0113,0.0148,0.0187,0.0255,0.0282,0.0253,0.0355,0.0358,0.0365,0.0364,0.0331,0.0365,0.0341,0.0342,0.0342,0,-0.0439,-0.0409,-0.0385,-0.0326,-0.0314,-0.0295,-0.0231,-0.02,-0.0127,-0.0087,-0.0015,0.0046,0.0116,0.0141,0.0249,0.0228,0.0279,0.032,0.0323,0.0367,0.038,0.038,0.0376,0.0352,0.0351,0.035,0.035,0,-0.0476,-0.043,-0.0404,-0.0384,-0.0319,-0.0301,-0.0268,-0.0204,-0.017,-0.0099,-0.0069,0.0029,0.008,0.0158,0.0251,0.025,0.0355,0.0365,0.0423,0.0423,0.0435,0.0435,0.0437,0.0437,0.0437,0.0437,0.0437,0,-0.0501,-0.048,-0.0419,-0.0403,-0.0371,-0.0324,-0.0289,-0.0249,-0.0191,-0.0149,-0.0077,-0.0024,0.0088,0.0167,0.0242,0.035,0.0354,0.0423,0.0442,0.0407,0.0404,0.0432,0.0431,0.0438,0.0438,0.0438,0.0437,0,-0.0546,-0.0507,-0.0471,-0.0406,-0.0388,-0.0368,-0.0311,-0.0285,-0.0234,-0.0183,-0.0164,-0.0061,0.0041,0.0148,0.0273,0.0341,0.0435,0.0473,0.0411,0.0423,0.0473,0.0468,0.0533,0.0534,0.0535,0.0535,0.0536,0,-0.0561,-0.0548,-0.0484,-0.0464,-0.0435,-0.0397,-0.0373,-0.0314,-0.0285,-0.0197,-0.0176,-0.0071,0.0015,0.0191,0.0325,0.0452,0.0461,0.0492,0.0493,0.0475,0.0486,0.048,0.0474,0.0467,0.0467,0.0467,0.0467,0,-0.0581,-0.0562,-0.0531,-0.0495,-0.0467,-0.043,-0.0392,-0.0378,-0.0307,-0.0269,-0.0195,-0.0127,0.0056,0.0197,0.0366,0.0435,0.0467,0.0496,0.0509,0.045,0.0417,0.0427,0.0422,0.0466,0.0466,0.0466,0.0466,0.0466,-0.0593,-0.0582,-0.0546,-0.0514,-0.0488,-0.046,-0.0435,-0.0401,-0.0364,-0.0301,-0.0229,-0.0137,0.0025,0.0248,0.0385,0.05,0.0502,0.0516,0.0515,0.0514,0.0501,0.0472,0.0528,0.0528,0.0528,0.0529,0.0529,0,-0.0596,-0.0583,-0.0562,-0.0523,-0.051,-0.0482,-0.044,-0.0415,-0.0382,-0.0334,-0.0267,-0.0128,0.0047,0.0209,0.0402,0.0527,0.0515,0.0529,0.0491,0.0491,0.049,0.0475,0.0496,0.0496,0.0497,0.0497,0,0,-0.0591,-0.0578,-0.0568,-0.0546,-0.0525,-0.0492,-0.0468,-0.0433,-0.0392,-0.0361,-0.031,-0.0198,0.0017,0.0144,0.0307,0.0409,0.0412,0.0408,0.0418,0.0353,0.0351,0.0464,0.0438,0,0,0,0,0]}],[{"header":{"parameterUnit":"m.s-1","parameterCategory":2,"la1":30.2991,"la2":30.254,"lo1":-89.0895,"lo2":-89.0444,"dy":0.0017,"dx":0.0017,"nx":28,"ny":28,"refTime":"2024-05-01T09:00:00:Z","depth":"4","parameterNumber":2,"parameterNumberName":"U-component_of_CURRENTS"},"data":[0,0,0,0,0,0,0,0,0,0,0,0,0,0,0,0,0,0,0,0,0,0,0,0,0,0,0,0,0,0,0,0,0,0,0,0,0,0,0,0,0,0,0,0,0,0,0,0,0,0,0,0,0,0,0,0,0,0,-0.065,-0.0651,0,-0.0732,-0.0733,-0.0735,-0.0705,-0.0703,-0.0701,-0.0699,-0.0701,-0.0703,-0.0705,0,0,0,0,0,0,0,0,0,0,0,0,0,-0.0666,-0.0665,-0.065,-0.0651,-0.0652,-0.0732,-0.0733,-0.0735,-0.0705,-0.0703,-0.07,-0.0698,-0.07,-0.0703,-0.0705,0,0,0,0,0,0,0,0,0,0,0,0,0,-0.0697,-0.0665,-0.065,-0.0644,-0.0644,-0.0732,-0.0733,-0.0735,-0.0706,-0.0703,-0.0699,-0.0696,-0.07,-0.0703,-0.0706,-0.0789,0,0,-0.0715,-0.0716,0,0,0,0,0,0,0,0,-0.0695,-0.0697,-0.0644,-0.0645,-0.0645,-0.0702,-0.074,-0.0748,-0.0707,-0.0686,-0.0698,-0.0695,-0.0694,-0.0698,-0.0726,-0.0789,-0.0789,-0.0715,-0.0717,-0.0719,-0.0719,0,0,0,0,0,0,0,-0.0693,-0.0695,-0.0686,-0.0645,-0.0646,-0.0705,-0.0705,-0.0743,-0.0708,-0.0687,-0.0685,-0.069,-0.0694,-0.0723,-0.0725,-0.0789,-0.0715,-0.0718,-0.072,-0.0721,-0.0845,-0.0846,0,0,0,0,0,0,-0.067,-0.0692,-0.0683,-0.0688,-0.0659,-0.0706,-0.0706,-0.069,-0.0709,-0.0709,-0.0692,-0.0688,-0.072,-0.0722,-0.0725,-0.078,-0.0719,-0.0721,-0.0723,-0.0843,-0.0845,-0.0846,0,0,0,0,0,0,-0.0669,-0.0667,-0.068,-0.0691,-0.0696,-0.0708,-0.0691,-0.0693,-0.0734,-0.0713,-0.0711,-0.0731,-0.0717,-0.0721,-0.0753,-0.0781,-0.0723,-0.0726,-0.0842,-0.0844,-0.0846,-0.0918,0,0,0,0,0,0,-0.0669,-0.0666,-0.0683,-0.0688,-0.0694,-0.072,-0.0694,-0.0697,-0.0739,-0.0735,-0.0747,-0.0743,-0.0715,-0.0749,-0.0757,-0.0784,-0.0728,-0.084,-0.0843,-0.0845,-0.0914,-0.0922,-0.0929,0,0,0,0,0,-0.0669,-0.0676,-0.0682,-0.0683,-0.0702,-0.0721,-0.0731,-0.0732,-0.0745,-0.0761,-0.0768,-0.0743,-0.077,-0.0754,-0.0762,-0.0791,-0.0838,-0.0842,-0.0845,-0.091,-0.092,-0.0929,0,0,0,0,0,0,-0.0691,-0.0674,-0.068,-0.0683,-0.0702,-0.0713,-0.0741,-0.0761,-0.0791,-0.0791,-0.0779,-0.0776,-0.0815,-0.0802,-0.0784,-0.0832,-0.0795,-0.08,-0.0842,-0.0852,-0.086,-0.0842,-0.0731,0,0,0,0,0,-0.0707,-0.0703,-0.0706,-0.0714,-0.0723,-0.0752,-0.0777,-0.0778,-0.0792,-0.0804,-0.0823,-0.0831,-0.0841,-0.0842,-0.0855,-0.0899,-0.0873,-0.0916,-0.0924,-0.0931,-0.0922,-0.0904,-0.0909,-0.0857,-0.0857,-0.0857,0,0,-0.0719,-0.0712,-0.0712,-0.0721,-0.074,-0.0761,-0.0758,-0.0788,-0.0814,-0.0802,-0.0864,-0.0877,-0.0863,-0.0893,-0.0908,-0.088,-0.0939,-0.0935,-0.0941,-0.0928,-0.0908,-0.0912,-0.0917,-0.0859,-0.0859,-0.0858,0,0,-0.0738,-0.0734,-0.0745,-0.0759,-0.0785,-0.0793,-0.0809,-0.0846,-0.0866,-0.0925,-0.0917,-0.0939,-0.0984,-0.0961,-0.0955,-0.1022,-0.0993,-0.1039,-0.1056,-0.104,-0.1043,-0.1046,-0.1045,-0.1046,-0.1029,-0.1029,-0.1029,0,-0.0766,-0.0759,-0.0759,-0.0778,-0.0788,-0.0808,-0.083,-0.0863,-0.0915,-0.0933,-0.0939,-0.1002,-0.1003,-0.1008,-0.1027,-0.1038,-0.1033,-0.1021,-0.1048,-0.105,-0.1052,-0.1049,-0.1051,-0.1033,-0.1033,-0.1032,-0.1032,0,-0.0784,-0.0796,-0.0802,-0.0818,-0.084,-0.0854,-0.0878,-0.092,-0.0959,-0.0987,-0.1036,-0.1048,-0.1063,-0.1083,-0.1078,-0.1097,-0.1095,-0.1072,-0.1021,-0.1061,-0.1057,-0.1057,-0.1039,-0.1037,-0.1036,-0.1035,0,0,-0.0785,-0.0811,-0.0815,-0.0826,-0.0854,-0.0864,-0.0907,-0.0937,-0.0961,-0.1026,-0.1052,-0.1095,-0.1112,-0.1107,-0.1113,-0.1109,-0.1136,-0.1105,-0.1103,-0.1099,-0.1121,-0.1043,-0.1035,-0.1125,-0.1125,-0.1125,-0.1123,0,-0.08,-0.0832,-0.0841,-0.0871,-0.088,-0.0898,-0.093,-0.0965,-0.1,-0.1038,-0.1055,-0.1088,-0.1115,-0.1127,-0.1134,-0.1137,-0.1136,-0.114,-0.1086,-0.1084,-0.1005,-0.1031,-0.1124,-0.1122,-0.1122,-0.1122,-0.1122,0,-0.0805,-0.0819,-0.0857,-0.0872,-0.088,-0.0909,-0.0934,-0.0969,-0.101,-0.1035,-0.1066,-0.1088,-0.1113,-0.1118,-0.1134,-0.1142,-0.114,-0.1137,-0.1136,-0.103,-0.1004,-0.1068,-0.1121,-0.1121,-0.1121,-0.1121,-0.1121,0,-0.0787,-0.0819,-0.0846,-0.0855,-0.0891,-0.0912,-0.0933,-0.0975,-0.0994,-0.1034,-0.1041,-0.108,-0.1094,-0.1101,-0.1122,-0.1131,-0.1124,-0.112,-0.1044,-0.104,-0.1079,-0.1075,-0.111,-0.111,-0.111,-0.111,-0.111,0,-0.0774,-0.0793,-0.0842,-0.0856,-0.0872,-0.0907,-0.0931,-0.0957,-0.0986,-0.0988,-0.1042,-0.1035,-0.1093,-0.11,-0.1113,-0.108,-0.1112,-0.1046,-0.1026,-0.1114,-0.1115,-0.108,-0.1076,-0.1109,-0.1109,-0.1109,-0.1109,0,-0.0749,-0.0792,-0.0814,-0.0857,-0.087,-0.0886,-0.0915,-0.092,-0.0961,-0.0958,-0.0967,-0.1013,-0.1021,-0.1059,-0.1069,-0.1051,-0.103,-0.1004,-0.1109,-0.1097,-0.0966,-0.0966,-0.0921,-0.0918,-0.0915,-0.0913,-0.0911,0,-0.0738,-0.0755,-0.0806,-0.0815,-0.0839,-0.0861,-0.0865,-0.0905,-0.0891,-0.0924,-0.0898,-0.0936,-0.0955,-0.0908,-0.0966,-0.097,-0.096,-0.095,-0.0953,-0.0957,-0.0943,-0.0948,-0.0951,-0.0907,-0.0907,-0.0906,-0.0905,0,-0.0694,-0.0731,-0.0746,-0.0767,-0.0782,-0.0782,-0.0784,-0.076,-0.0787,-0.0838,-0.0795,-0.0805,-0.0812,-0.0843,-0.0854,-0.0856,-0.0959,-0.0924,-0.093,-0.0932,-0.094,-0.093,-0.0937,-0.0897,-0.0898,-0.0899,-0.0899,0,-0.0652,-0.0648,-0.0677,-0.0686,-0.0707,-0.0679,-0.0694,-0.0657,-0.0655,-0.0681,-0.0669,-0.0714,-0.0778,-0.0781,-0.0787,-0.079,-0.0786,-0.0765,-0.0779,-0.0789,-0.0751,-0.0742,-0.0614,0,0,0,0,0,-0.0585,-0.0572,-0.0582,-0.0588,-0.0613,-0.062,-0.0619,-0.0629,-0.0649,-0.0587,-0.0621,-0.0616,-0.0636,-0.0675,-0.0654,-0.075,-0.0801,-0.0725,-0.0786,-0.0849,-0.0859,-0.0829,0,0,0,0,0,0,-0.0535,-0.0538,-0.0546,-0.0505,-0.0497,-0.05,-0.0495,-0.0514,-0.0471,-0.0511,-0.0522,-0.0579,-0.061,-0.0641,-0.0644,-0.0657,-0.068,-0.0768,-0.0766,-0.0843,-0.0852,-0.086,-0.0833,0,0,0,0,0]},{"header":{"parameterUnit":"m.s-1","parameterCategory":2,"la1":30.2991,"la2":30.254,"lo1":-89.0895,"lo2":-89.0444,"dy":0.0017,"dx":0.0017,"nx":28,"ny":28,"refTime":"2024-05-01T09:00:00:Z","depth":"4","parameterNumber":3,"parameterNumberName":"V-component_of_CURRENTS"},"data":[0,0,0,0,0,0,0,0,0,0,0,0,0,0,0,0,0,0,0,0,0,0,0,0,0,0,0,0,0,0,0,0,0,0,0,0,0,0,0,0,0,0,0,0,0,0,0,0,0,0,0,0,0,0,0,0,0,0,-0.0337,-0.0337,0,-0.035,-0.035,-0.035,-0.0416,-0.0418,-0.0419,-0.0421,-0.0432,-0.0431,-0.0429,0,0,0,0,0,0,0,0,0,0,0,0,0,-0.0276,-0.0277,-0.0337,-0.0337,-0.0338,-0.035,-0.035,-0.035,-0.0416,-0.0418,-0.042,-0.0422,-0.0433,-0.0431,-0.0429,0,0,0,0,0,0,0,0,0,0,0,0,0,-0.0295,-0.0278,-0.0337,-0.0374,-0.0378,-0.035,-0.035,-0.035,-0.0415,-0.0418,-0.042,-0.0423,-0.0433,-0.0431,-0.0429,-0.0362,0,0,-0.0423,-0.0422,0,0,0,0,0,0,0,0,-0.0294,-0.0297,-0.0368,-0.0371,-0.0375,-0.0387,-0.0333,-0.0355,-0.0414,-0.0398,-0.0421,-0.0424,-0.0416,-0.0416,-0.0409,-0.0363,-0.0363,-0.0423,-0.0421,-0.042,-0.042,0,0,0,0,0,0,0,-0.0293,-0.0296,-0.034,-0.0368,-0.0373,-0.0358,-0.0365,-0.0337,-0.039,-0.04,-0.0405,-0.041,-0.0418,-0.041,-0.0409,-0.0363,-0.0423,-0.0421,-0.0419,-0.0419,-0.0321,-0.032,0,0,0,0,0,0,-0.0298,-0.0295,-0.0339,-0.034,-0.0343,-0.0358,-0.0365,-0.0378,-0.039,-0.0396,-0.0408,-0.0413,-0.0413,-0.0412,-0.041,-0.0373,-0.042,-0.0418,-0.0417,-0.0323,-0.0321,-0.032,0,0,0,0,0,0,-0.0297,-0.0302,-0.0339,-0.032,-0.0324,-0.0357,-0.0371,-0.0377,-0.0382,-0.0397,-0.0402,-0.0409,-0.0415,-0.0413,-0.0411,-0.0373,-0.0418,-0.0416,-0.0324,-0.0322,-0.032,-0.0272,0,0,0,0,0,0,-0.0295,-0.0302,-0.0311,-0.032,-0.0325,-0.0331,-0.0369,-0.0375,-0.0381,-0.0389,-0.0398,-0.0402,-0.0417,-0.0414,-0.0409,-0.0371,-0.0414,-0.0326,-0.0323,-0.0321,-0.0276,-0.0269,-0.0263,0,0,0,0,0,-0.0293,-0.0298,-0.0311,-0.0317,-0.0338,-0.0331,-0.0331,-0.0362,-0.0379,-0.0376,-0.0396,-0.0403,-0.0394,-0.0411,-0.0405,-0.0366,-0.0327,-0.0324,-0.0321,-0.0278,-0.027,-0.0263,0,0,0,0,0,0,-0.0282,-0.0305,-0.032,-0.0335,-0.0336,-0.0344,-0.0346,-0.0353,-0.0361,-0.038,-0.0389,-0.0393,-0.037,-0.0374,-0.0393,-0.0331,-0.0358,-0.0354,-0.0327,-0.032,-0.0314,-0.0332,-0.0412,0,0,0,0,0,-0.028,-0.0295,-0.0304,-0.0318,-0.0316,-0.0324,-0.0325,-0.0345,-0.0354,-0.0361,-0.0356,-0.0357,-0.0345,-0.0344,-0.0332,-0.0296,-0.0295,-0.0266,-0.026,-0.0254,-0.0265,-0.0238,-0.023,-0.031,-0.031,-0.031,0,0,-0.0283,-0.0297,-0.0308,-0.0316,-0.0321,-0.0316,-0.0332,-0.0339,-0.0339,-0.0357,-0.0345,-0.0331,-0.0331,-0.0302,-0.029,-0.0307,-0.0224,-0.0251,-0.0246,-0.026,-0.0234,-0.0226,-0.022,-0.0308,-0.0308,-0.0308,0,0,-0.0289,-0.0303,-0.0313,-0.0308,-0.0318,-0.0317,-0.0316,-0.0311,-0.0316,-0.0302,-0.0309,-0.0286,-0.0262,-0.0253,-0.0248,-0.0196,-0.0189,-0.0175,-0.016,-0.0132,-0.0126,-0.0121,-0.0082,-0.0074,-0.0175,-0.0175,-0.0175,0,-0.0293,-0.0307,-0.0311,-0.031,-0.0311,-0.0314,-0.0313,-0.0305,-0.03,-0.0295,-0.0305,-0.0252,-0.0243,-0.0209,-0.0193,-0.0181,-0.0163,-0.0189,-0.0125,-0.012,-0.0115,-0.0077,-0.0069,-0.0173,-0.0173,-0.0173,-0.0173,0,-0.0301,-0.0308,-0.0308,-0.0313,-0.0307,-0.0307,-0.0299,-0.0288,-0.0286,-0.0276,-0.0239,-0.0218,-0.0196,-0.0164,-0.0166,-0.0109,-0.0103,-0.0117,-0.0147,-0.0104,-0.0066,-0.0058,-0.0169,-0.017,-0.0171,-0.0171,0,0,-0.0326,-0.0317,-0.0319,-0.0318,-0.0311,-0.0308,-0.0299,-0.0285,-0.0284,-0.0251,-0.0233,-0.0181,-0.016,-0.0152,-0.0123,-0.0089,-0.0019,-0.0084,-0.0084,-0.0051,0.0058,0.0029,0.0035,-0.0018,-0.0017,-0.0016,0.008,0,-0.0334,-0.033,-0.0324,-0.0321,-0.0314,-0.0309,-0.0298,-0.029,-0.0277,-0.0252,-0.0216,-0.0184,-0.0158,-0.0137,-0.0095,-0.0044,0.0,-0.0043,0.0014,0.0016,-0.0019,0.0043,-0.0012,0.0086,0.0088,0.0089,0.009,0,-0.035,-0.0342,-0.0338,-0.0326,-0.0324,-0.0321,-0.0314,-0.0305,-0.0277,-0.0265,-0.0227,-0.0197,-0.013,-0.0122,-0.0015,-0.0042,0.0012,0.0052,0.0057,0.001,0.0001,0.0029,0.0104,0.0103,0.0102,0.0101,0.01,0,-0.0372,-0.0356,-0.0353,-0.0348,-0.0331,-0.0334,-0.0328,-0.0311,-0.0305,-0.0269,-0.026,-0.0186,-0.0151,-0.0075,0.0009,0.0004,0.0118,0.0114,0.0143,0.0142,0.0116,0.0108,0.0187,0.0187,0.0187,0.0186,0.0186,0,-0.0386,-0.0387,-0.0363,-0.0365,-0.0363,-0.035,-0.035,-0.0341,-0.032,-0.0314,-0.0264,-0.0244,-0.0138,-0.0067,0.0012,0.0102,0.0121,0.0155,0.0165,0.0138,0.0132,0.0123,0.0114,0.019,0.0189,0.0189,0.0188,0,-0.0417,-0.0401,-0.0398,-0.038,-0.0376,-0.0379,-0.0369,-0.0367,-0.035,-0.0342,-0.033,-0.0268,-0.0179,-0.0074,0.0051,0.0098,0.0188,0.0215,0.0192,0.0197,0.02,0.0193,0.0266,0.0266,0.0266,0.0266,0.0265,0,-0.043,-0.0431,-0.0416,-0.0413,-0.0407,-0.0403,-0.0402,-0.0385,-0.0385,-0.0364,-0.0362,-0.0281,-0.0231,-0.007,0.0035,0.0188,0.0198,0.0249,0.0221,0.0207,0.0209,0.0202,0.0195,0.0265,0.0265,0.0265,0.0265,0,-0.0452,-0.0451,-0.0445,-0.0438,-0.0436,-0.0429,-0.043,-0.0432,-0.042,-0.0408,-0.0384,-0.0308,-0.0212,-0.0086,0.0034,0.0137,0.0217,0.0247,0.0248,0.0222,0.0206,0.0207,0.0201,0.0264,0.0264,0.0264,0.0265,0,-0.0467,-0.0469,-0.0463,-0.0454,-0.0455,-0.0453,-0.0448,-0.0442,-0.0436,-0.042,-0.0415,-0.0319,-0.0257,-0.0113,-0.0008,0.0096,0.0118,0.0141,0.0148,0.015,0.0076,0.0036,0.0059,0,0,0,0,0,-0.0474,-0.0474,-0.0473,-0.0461,-0.0466,-0.0464,-0.0464,-0.0458,-0.0457,-0.0446,-0.043,-0.0347,-0.0205,-0.0143,-0.0042,-0.0003,0.0144,0.0116,0.0175,0.0261,0.0261,0.0191,0,0,0,0,0,0,-0.0473,-0.048,-0.0474,-0.047,-0.0467,-0.0468,-0.047,-0.0465,-0.0456,-0.0449,-0.0369,-0.034,-0.0189,-0.0262,-0.0047,-0.0016,0.0029,0.0186,0.0187,0.026,0.0261,0.0262,0.0189,0,0,0,0,0]}]]